sat.trackr.live / text

‹ back to catalog

ICEYE-X48

NORAD 63253 · 2025-052AV

PAYLOAD ACTIVE UNKNOWN

§ Identity

Operator
Country
US
Launch date
2025-03-15
Launch site
AFWTR
Launch vehicle
Mass (kg)
RCS (m²)

External: N2YO · Heavens-Above · Gunter

§ Orbital elements

Epoch: 2026-09-22T16:47:25.096992Z

Period
96.09 min
Inclination
97.6714°
Eccentricity
0.0001004
Mean motion
14.98533607 rev/d
Perigee alt
570.7 km
Apogee alt
572.1 km
Semi-major
6,949.6 km
B*
1.5383e-4
RAAN
156.3530°
Arg perigee
187.4209°
Mean anomaly
172.6999°
Rev number
8,327

§ Raw data

ICEYE-X481 63253U 25052AV  26265.69959603  .00001783  00000+0  15383-3 0  99922 63253  97.6714 156.3530 0001004 187.4209 172.6999 14.98533607 83273

JSON: /api/v1/satellites/63253 · /tle

For live sub-satellite position, see the globe view (requires WebGL).

§ Visibility from observer

Set your observer location to see the next 7 days of passes ≥ 10°. The values pass through the URL so the page stays shareable.

No JS? Fill the form by hand. The geolocation button needs JavaScript.